C/2014 W10 ( PanSTARRS )

Japanese version
Home page
Updated on November 14, 2016

---------------------------------------------------------------------

* Profile

Discovery Date November 25, 2014
Magnitude 21.2 mag
Discoverer Pan-STARRS 1 telescope (Haleakala)

* Orbital Elements

T 2014 Feb. 6.75745 TT                                  MPCW
q   7.9952199            (2000.0)            P               Q
                   Peri.  356.23188     +0.72548961     -0.01117805
                   Node    43.68179     +0.65462350     -0.29743337
e   1.0            Incl.   85.11344     +0.21244505     +0.95467714
From 17 observations 2014 Nov. 25-Dec. 22.

* Magnitudes Graph

        m1 = 7.0 + 5 log d + 10.0 log r

---------------------------------------------------------------------

The orbital elements are published on M.P.E.C. 2016-U66.
The magnitudes graphs are made with Comet for Windows.

---------------------------------------------------------------------

Copyright(C) Seiichi Yoshida (comet@aerith.net). All rights reserved.